Location: Nairn
(57.5833°N, 3.8667°W)
Time: 19:22:50
(UTC+00:00)

Cosmos 1892 Rocket - Pass Details

Date: 07 August 2020
Orbit: 605 x 634 km, 82.5° (Epoch: 24 September)

Event Time Altitude Azimuth Distance (km) Brightness Sun altitude
Rises 03:11:46 0° 343° (NNW) 2,947 7.5 -8.1°
Reaches altitude 10° 03:14:07 10° 336° (NNW) 2,032 6.5 -7.9°
Maximum altitude 03:18:17 38° 268° (W) 964 4.2 -7.6°
Drops below altitude 10° 03:22:25 10° 200° (SSW) 2,005 5.6 -7.2°
Enters shadow 03:23:18 - 197° (SSW) 2,340 6.0 -7.1°
